CZ-3C DEB, 40204

Orbit data source: Space-Track

CZ-3C DEB, 40204 is space debris in HEO originally from a launch on Fri, 24 Feb 2012 UTC launched from the Xichang Space Center, China (XSC). Debris objects in space refer to the collection of defunct objects orbiting the Earth. Examples of debris include non-operational satellites, rocket bodies, and fragments generated from explosions, collisions, or faulty payload assembly.

Loading next visibility...
Identifier
40204, 2012-008P
Orbit
HEO
Country
Flag of CNCN / PRC
Related business
Manufacturer
CALT
Mission
Spacecraft
Bus & Motor
Unknown
Mass
Unknown
Launch date (UTC)
2012-02-24 (14 years ago)
Launch vehicle
Unknown
Launch site
Xichang Space Center, China (XSC)
Object type
Payload
Rocket body
Debris
Shape & HBR
Unknown shape, 0.1 m
Radar Cross Section
Medium (>0.1 m² and <1 m²)

Expand to show TLE details & history
Last TLE update: 4 months ago

TLE from 4 months ago
0 CZ-3C DEB
1 40204U 12008P   26108.22952091 -.00000125  00000-0  95609-3 0  9999
2 40204  20.7685  34.3767 7096214 185.4619 157.5216  2.27002446 95359
Epoch: 2026-04-18T05:30Z
TLE epoch observation values (Epoch: 2026-04-18T05:30:30.606Z)
Latitude
0.00004°
Longitude
105.38275°
Altitude
35,002.067 km
Speed
1.722 km/s
True Right ascension
02h 17m 26s
True Declination
0° 00' 00"
Sunlit
Object was in daylight at epoch
Visualization orbit readout
Latitude
Unknown
Longitude
Unknown
Altitude
Unknown
Speed
Unknown
Apparent Right ascension
Unknown
Apparent Declination
Unknown
Sunlit
N/A
Visualization observer readout
Local Sidereal Time
20:03:21
Azimuth
Unknown
Elevation
Unknown
Doppler factor
Unknown
Orbital elements
Apogee altitude
35,439.153 km
Perigee altitude
724.515 km
Semi-major axis
24,459.971 km
Eccentricity
0.70962
Inclination
20.7685°
RAAN
34.3767°
Arg. of periapsis
185.4619°
True anomaly
174.54132°
Mean anomaly
157.5216°
Eccentric anomaly
166.80353°
Mean motion
0.56736 °/min
Orbital period
634.52 mins
BSTAR
0.00095609
Loading maneuver chart data...
Computing Atmospheric mass density...
Loading historical data...
Loading historical data...
Loading historical data...
Loading historical data...
Loading historical data...
Loading historical data...
Loading historical data...

Documentation

Showing up to 5 results
|